Temp
62 62 62 62 62 62 63 62 61 61 60 60 61 61 61 60 59 60 62 66 70 72 73 72 71 71 70 70 69 69 68 68 68 68 68 68 68 68 68 68 68 68 68
65 65 64 63 63 63 63 63 63 62 61 60 61 61 61 60 59 59 60 62 68 70 72 72 72 71 71 70 69 68 68 68 67 67 67 67 67 67 67 67 67 67 67
66 66 65 64 65 64 63 63 62 62 61 63 61 62 62 60 58 58 59 60 63 66 70 72 72 71 71 70 70 68 68 67 67 67 66 66 66 66 66 66 66 66 67
67 67 66 65 66 63 64 62 63 61 60 60 60 60 60 59 59 57 58 59 59 63 66 70 71 71 71 70 70 69 68 67 67 66 66 65 65 65 65 65 65 66 66
70 68 68 67 65 65 64 63 61 61 58 58 58 58 58 58 58 60 57 57 58 60 60 65 67 68 69 70 70 70 68 67 66 66 66 65 65 65 65 65 65 65 65
69 65 64 65 65 63 62 61 62 59 59 61 63 61 56 56 56 56 56 59 58 58 57 58 60 63 66 69 70 70 69 68 67 66 66 65 65 65 65 65 65 65 65
67 64 64 63 62 63 65 62 60 60 59 55 56 55 53 54 54 55 54 56 57 58 56 57 58 56 60 66 68 69 69 68 67 66 66 66 65 65 65 65 65 65 65
66 65 63 63 63 61 61 61 60 58 57 55 54 50 54 54 53 55 53 56 56 57 57 57 57 55 54 56 58 66 68 69 68 67 66 65 65 65 65 65 65 65 65
65 64 64 63 62 61 61 60 59 59 61 54 54 55 47 49 48 50 53 56 57 54 57 57 56 56 54 54 58 61 63 66 68 68 67 66 65 65 65 65 64 64 64
63 64 64 63 63 62 61 61 61 60 58 59 53 56 52 50 48 47 49 48 50 53 52 52 55 56 56 55 56 57 60 63 66 67 67 66 65 65 64 64 64 64 64
60 62 63 63 61 62 62 61 60 58 59 60 56 53 56 53 52 49 53 47 48 50 53 54 54 54 55 55 54 56 61 63 65 65 66 65 63 62 63 63 63 63 62
55 56 58 60 61 61 60 60 60 59 60 60 60 59 57 54 55 52 47 48 46 49 50 53 54 54 54 53 55 56 58 60 61 62 60 59 59 58 60 61 62 61 61
51 52 53 54 56 58 60 60 59 58 58 58 58 59 59 58 58 55 53 53 46 45 47 45 45 48 50 48 49 52 54 58 58 56 57 57 54 52 53 53 54 56 59
51 51 52 52 53 56 57 57 57 57 58 57 57 58 58 58 57 56 54 53 43 42 40 44 42 43 45 47 50 52 50 53 53 53 53 53 52 52 52 52 53 53 55
53 50 50 50 51 52 54 56 56 57 55 55 56 57 57 57 55 54 53 51 49 44 40 39 39 40 41 45 48 47 47 51 51 51 52 52 51 51 50 50 52 53 54
47 48 47 47 47 47 48 49 49 50 52 52 52 53 50 48 47 46 45 46 46 45 43 39 37 38 40 43 46 42 43 48 50 50 50 49 49 49 50 51 52 52 52
44 44 45 44 44 44 43 44 44 45 46 46 46 45 43 44 43 43 43 43 43 43 41 37 37 37 37 38 40 39 41 40 41 47 49 49 49 49 50 50 50 51 51
42 42 43 42 42 42 41 41 41 41 42 42 42 42 41 43 41 41 41 40 40 39 38 36 34 33 34 36 37 37 39 41 40 43 45 46 47 48 49 49 50 50 50
40 41 42 41 41 42 43 43 42 41 40 40 40 40 40 40 38 38 37 37 36 38 36 35 33 34 34 35 35 36 37 37 41 42 43 44 46 48 49 49 49 49 48
41 41 41 42 42 41 40 39 40 39 39 39 39 39 39 38 37 35 35 35 36 36 36 35 34 34 34 35 35 34 33 36 35 41 43 44 45 45 46 46 46 46 46
41 42 42 42 42 42 41 35 37 38 37 36 36 37 39 41 43 40 37 36 36 35 34 34 33 33 33 32 32 33 33 31 30 30 30 31 31 31 33 39 41 43 44
38 39 39 40 40 42 43 41 37 35 35 34 33 34 36 37 37 43 43 42 38 34 34 33 32 32 30 28 28 28 24 23 21 28 27 28 29 28 29 30 39 42 44
36 36 37 39 39 41 43 41 37 33 32 31 30 29 32 36 36 35 39 39 39 41 40 32 29 28 27 29 23 23 26 22 22 27 27 24 27 27 29 34 40 42 43
34 35 34 33 32 37 41 40 37 23 22 23 26 29 28 29 32 32 30 29 29 30 31 34 29 28 29 29 29 26 23 24 26 27 26 18 25 26 28 28 38 40 42
28 25 25 25 26 29 42 40 33 27 27 27 29 29 30 29 39 38 30 28 27 28 37 39 38 40 40 40 35 26 21 17 19 24 26 23 23 23 25 26 29 38 40
26 25 26 22 37 29 41 40 33 29 26 29 28 29 37 35 39 38 29 26 25 26 27 28 27 29 30 30 37 29 23 12 13 15 25 18 19 20 18 24 24 28 28
MSLP
1019.70 1019.88 1020.02 1020.14 1020.10 1020.22 1020.34 1020.56 1020.75 1020.74 1020.83 1020.88 1020.76 1020.84 1020.88 1021.01 1020.99 1020.94 1020.89 1020.87 1020.84 1020.81 1020.95 1021.16 1021.46 1021.75 1021.90 1021.88 1022.08 1022.16 1022.22 1022.25 1022.39 1022.44 1022.53 1022.41 1022.45 1022.56 1022.59 1022.66 1022.68 1022.66 1022.66
1019.23 1019.40 1019.59 1019.80 1019.86 1019.88 1020.00 1020.14 1020.32 1020.41 1020.48 1020.62 1020.67 1020.62 1020.59 1020.64 1020.85 1020.81 1020.76 1020.77 1020.71 1020.70 1020.86 1021.05 1021.24 1021.49 1021.81 1021.99 1022.05 1022.21 1022.27 1022.33 1022.47 1022.59 1022.73 1022.83 1022.79 1022.82 1022.82 1022.90 1022.97 1022.96 1022.95
1018.67 1018.87 1019.03 1019.32 1019.29 1019.36 1019.56 1019.83 1019.95 1020.03 1020.27 1020.26 1020.50 1020.36 1020.37 1020.30 1020.51 1020.54 1020.53 1020.45 1020.51 1020.59 1020.54 1020.62 1020.82 1021.21 1021.46 1021.76 1021.99 1022.19 1022.30 1022.40 1022.57 1022.67 1022.78 1022.96 1023.02 1023.06 1023.08 1023.16 1023.13 1023.16 1023.14
1017.97 1018.30 1018.49 1018.66 1018.68 1018.97 1019.18 1019.50 1019.71 1019.86 1020.01 1020.14 1020.19 1020.09 1020.08 1020.10 1020.08 1020.25 1020.34 1020.42 1020.50 1020.52 1020.55 1020.50 1020.63 1020.74 1021.10 1021.48 1021.77 1022.05 1022.34 1022.43 1022.62 1022.70 1022.81 1022.94 1023.10 1023.15 1023.20 1023.25 1023.28 1023.26 1023.33
1017.18 1017.50 1017.71 1017.79 1018.14 1018.42 1018.67 1019.01 1019.31 1019.52 1019.72 1019.79 1019.94 1019.99 1020.02 1020.00 1019.93 1019.99 1020.27 1020.39 1020.39 1020.41 1020.38 1020.38 1020.43 1020.62 1020.82 1021.12 1021.38 1021.72 1022.09 1022.43 1022.63 1022.77 1022.85 1022.97 1023.12 1023.19 1023.23 1023.29 1023.30 1023.29 1023.21
1016.69 1017.10 1017.24 1017.36 1017.65 1018.02 1018.21 1018.47 1018.68 1019.03 1019.26 1019.18 1019.50 1019.67 1019.71 1019.77 1019.68 1019.70 1019.69 1019.82 1019.95 1020.09 1020.20 1020.30 1020.28 1020.42 1020.57 1020.78 1021.04 1021.25 1021.68 1022.02 1022.35 1022.61 1022.73 1022.91 1023.06 1023.25 1023.26 1023.23 1023.30 1023.34 1023.23
1016.53 1016.83 1017.16 1017.36 1017.56 1017.82 1017.79 1017.95 1018.22 1018.62 1018.93 1019.22 1019.72 1019.82 1019.76 1019.40 1019.40 1019.24 1019.35 1019.29 1019.26 1019.49 1019.80 1019.86 1020.05 1020.24 1020.35 1020.45 1020.71 1020.97 1021.19 1021.69 1022.15 1022.43 1022.52 1022.64 1022.86 1023.06 1023.25 1023.20 1023.20 1023.28 1023.33
1016.36 1016.51 1016.70 1016.91 1017.10 1017.37 1017.57 1017.67 1017.90 1018.29 1018.46 1018.74 1019.54 1020.26 1019.96 1019.43 1018.98 1018.56 1018.69 1018.86 1018.80 1018.72 1018.89 1019.32 1019.61 1019.82 1020.08 1020.40 1020.56 1020.68 1020.90 1021.22 1021.78 1022.22 1022.50 1022.62 1022.66 1022.85 1023.06 1023.14 1023.13 1023.08 1023.10
1015.96 1016.09 1016.10 1016.31 1016.63 1016.85 1016.97 1017.23 1017.51 1017.68 1017.88 1018.35 1018.43 1019.10 1019.76 1019.33 1019.05 1018.23 1017.93 1017.96 1018.09 1018.34 1018.28 1018.52 1018.90 1019.20 1019.59 1019.86 1020.12 1020.35 1020.58 1020.81 1021.18 1021.68 1022.10 1022.50 1022.55 1022.69 1022.80 1022.99 1023.12 1023.14 1023.09
1015.67 1015.62 1015.72 1015.87 1016.07 1016.23 1016.46 1016.46 1016.63 1016.99 1017.50 1017.81 1018.37 1018.39 1018.56 1018.71 1018.91 1018.58 1018.09 1017.85 1018.00 1018.27 1018.46 1018.58 1018.62 1018.91 1019.19 1019.39 1019.68 1019.88 1020.15 1020.54 1020.93 1021.10 1021.57 1022.08 1022.40 1022.55 1022.82 1023.01 1023.17 1023.19 1023.06
1015.72 1015.55 1015.41 1015.37 1015.73 1015.78 1015.81 1015.94 1016.19 1016.49 1016.71 1017.04 1017.42 1017.68 1017.89 1018.18 1018.40 1018.48 1017.92 1017.70 1017.66 1017.51 1017.74 1017.91 1017.87 1018.14 1018.53 1018.81 1019.16 1019.41 1019.75 1020.22 1020.75 1021.08 1021.31 1021.75 1022.22 1022.58 1022.46 1022.90 1022.96 1023.12 1023.15
1016.22 1016.07 1015.62 1015.28 1015.10 1015.35 1015.30 1015.35 1015.53 1015.81 1015.98 1016.19 1016.43 1016.79 1017.06 1017.04 1016.97 1017.48 1017.89 1017.53 1018.13 1017.90 1017.80 1017.49 1017.14 1017.35 1017.70 1018.09 1018.43 1018.93 1019.51 1019.39 1019.35 1020.58 1021.28 1021.93 1022.72 1022.94 1022.29 1022.57 1022.80 1023.04 1023.23
1016.71 1016.58 1016.21 1015.80 1015.45 1015.07 1014.89 1014.93 1015.19 1015.42 1015.59 1015.83 1015.86 1016.06 1016.13 1016.26 1016.31 1016.62 1016.97 1017.16 1017.94 1018.43 1018.55 1018.29 1018.26 1017.57 1017.52 1017.91 1018.18 1018.77 1019.73 1020.32 1020.75 1020.83 1020.79 1021.84 1022.33 1022.86 1023.02 1022.73 1023.14 1023.21 1023.34
1017.15 1016.83 1016.46 1015.99 1015.56 1015.07 1014.98 1014.95 1015.11 1015.26 1015.42 1015.54 1015.69 1015.51 1015.54 1015.76 1015.87 1016.19 1016.43 1016.88 1017.66 1018.06 1018.43 1018.10 1018.02 1019.16 1018.15 1018.25 1017.98 1018.27 1019.20 1019.03 1021.04 1020.85 1020.90 1021.57 1022.26 1022.86 1022.96 1022.93 1023.06 1023.09 1023.19
1017.40 1017.08 1016.72 1016.47 1016.16 1015.79 1015.53 1015.28 1015.25 1015.38 1015.52 1015.64 1015.74 1015.63 1015.66 1015.55 1015.55 1015.69 1016.08 1016.63 1017.04 1017.84 1018.65 1018.72 1020.32 1019.86 1019.50 1018.59 1018.39 1018.90 1019.09 1019.98 1020.57 1020.56 1021.21 1021.50 1021.92 1022.45 1022.71 1022.56 1022.71 1022.74 1022.59
1017.86 1017.52 1017.21 1016.92 1016.75 1016.48 1016.32 1016.08 1016.04 1016.09 1016.02 1016.06 1015.96 1016.02 1016.00 1016.25 1016.25 1016.37 1016.69 1016.87 1017.18 1017.76 1018.01 1018.14 1018.81 1018.66 1019.25 1019.05 1019.34 1019.23 1019.77 1020.28 1020.16 1020.16 1021.24 1021.63 1022.41 1022.63 1022.34 1022.03 1021.79 1022.07 1022.22
1018.23 1017.98 1017.82 1017.61 1017.25 1017.04 1016.88 1016.75 1016.86 1016.63 1016.52 1016.61 1016.84 1016.88 1017.06 1017.08 1017.06 1017.11 1017.16 1017.19 1017.37 1017.58 1018.08 1018.64 1019.01 1018.85 1018.95 1019.65 1019.92 1020.04 1019.90 1020.77 1020.52 1020.93 1021.01 1021.13 1021.62 1021.93 1021.73 1021.35 1021.47 1021.71 1021.87
1018.79 1018.57 1018.28 1018.06 1017.86 1017.78 1017.59 1017.58 1017.60 1017.42 1017.46 1017.50 1017.66 1017.66 1017.65 1017.59 1017.77 1017.91 1018.00 1018.10 1017.97 1017.97 1018.25 1018.70 1019.33 1019.96 1019.97 1019.89 1019.88 1020.05 1020.41 1020.94 1021.24 1021.29 1021.19 1021.07 1021.29 1021.43 1021.22 1021.21 1021.26 1021.40 1021.39
1019.46 1019.06 1018.71 1018.65 1018.53 1018.37 1018.28 1018.21 1018.18 1018.00 1018.20 1018.37 1018.41 1018.32 1018.23 1018.09 1018.28 1018.52 1018.82 1018.98 1018.96 1018.81 1018.61 1018.99 1019.70 1019.89 1020.01 1020.00 1020.01 1020.03 1020.66 1020.94 1021.13 1021.09 1020.90 1020.85 1021.13 1021.04 1020.83 1020.86 1020.94 1021.17 1021.15
1019.92 1019.36 1019.36 1019.29 1019.10 1019.18 1019.16 1019.10 1018.69 1018.66 1018.90 1019.05 1019.02 1018.96 1018.94 1018.85 1018.84 1018.98 1019.22 1019.33 1019.28 1019.30 1019.36 1019.32 1019.59 1019.81 1020.24 1020.16 1019.97 1020.56 1020.86 1021.15 1021.31 1020.98 1020.80 1020.79 1020.85 1020.94 1020.87 1020.88 1020.89 1020.82 1021.02
1020.33 1020.20 1020.07 1020.01 1019.78 1019.79 1019.82 1019.67 1019.40 1019.56 1019.79 1019.78 1019.86 1019.59 1019.50 1019.36 1019.29 1019.53 1019.66 1019.69 1019.70 1019.75 1019.72 1019.88 1019.92 1020.17 1020.31 1020.16 1020.60 1021.07 1021.41 1021.51 1021.74 1021.71 1021.32 1021.21 1021.32 1021.53 1021.28 1021.14 1020.92 1020.74 1020.69
1021.17 1021.10 1020.89 1020.67 1020.40 1020.31 1020.33 1020.24 1020.30 1020.53 1020.81 1020.77 1020.64 1020.48 1020.38 1020.28 1020.26 1019.98 1020.01 1020.07 1020.30 1020.32 1020.28 1020.42 1020.51 1020.50 1020.57 1021.16 1021.28 1021.35 1021.79 1021.96 1022.14 1021.42 1021.59 1021.60 1021.45 1021.25 1021.05 1020.82 1020.45 1020.22 1020.14
1021.75 1021.66 1021.79 1021.52 1021.03 1020.99 1020.92 1020.94 1021.16 1021.43 1021.53 1021.52 1021.50 1021.15 1020.96 1020.97 1020.90 1020.79 1020.64 1020.60 1020.70 1020.66 1020.62 1020.75 1020.96 1021.15 1021.39 1021.45 1021.53 1021.79 1021.70 1021.84 1022.04 1021.76 1021.86 1021.47 1020.99 1020.73 1020.38 1020.27 1020.06 1019.97 1019.92
1022.51 1022.25 1022.30 1022.37 1021.89 1021.65 1021.54 1021.58 1021.83 1021.94 1022.00 1022.01 1021.89 1021.69 1021.57 1021.48 1021.29 1021.31 1021.25 1021.16 1021.12 1021.05 1020.93 1021.05 1021.21 1021.37 1021.37 1021.45 1021.47 1021.62 1021.87 1022.09 1022.01 1021.65 1021.59 1021.65 1021.02 1020.70 1020.15 1019.85 1019.61 1019.43 1019.36
1023.05 1022.93 1022.95 1022.91 1022.59 1022.16 1021.74 1021.91 1022.18 1022.37 1022.54 1022.47 1022.30 1022.04 1021.84 1021.78 1021.57 1021.56 1021.64 1021.67 1021.55 1021.38 1021.04 1020.88 1020.96 1020.83 1020.72 1020.70 1020.89 1021.54 1021.99 1022.38 1022.36 1021.87 1021.66 1021.68 1021.32 1021.02 1020.28 1019.70 1019.43 1019.11 1019.10
1023.14 1023.32 1023.41 1023.25 1023.00 1022.68 1022.17 1022.34 1022.56 1022.64 1022.86 1022.81 1022.58 1022.31 1021.97 1021.83 1021.82 1021.76 1021.90 1021.92 1021.78 1021.61 1021.40 1021.35 1021.44 1021.31 1021.21 1021.09 1020.70 1021.06 1021.46 1022.48 1022.72 1022.09 1021.42 1021.64 1021.56 1021.40 1020.66 1019.79 1019.60 1019.29 1019.29
Wind_Speed
5 4 4 4 4 4 4 4 4 4 5 6 6 6 6 5 6 3 3 9 10 11 11 11 11 10 10 10 9 8 9 9 9 9 9 10 10 9 10 10 10 10 10
6 7 6 6 5 5 5 5 6 5 5 5 6 6 7 5 6 6 4 5 11 12 13 13 13 12 12 11 10 10 10 10 9 9 8 8 8 8 9 9 8 9 9
8 8 7 7 7 6 6 5 5 4 4 4 6 6 5 7 5 6 5 5 6 11 14 16 15 14 14 13 12 11 11 10 10 10 9 8 8 8 8 7 8 7 7
9 8 7 7 7 5 6 5 6 5 5 5 5 5 5 5 7 6 5 5 5 5 10 15 16 17 16 15 14 13 12 11 11 10 10 9 8 8 8 7 7 6 5
10 9 8 7 7 6 6 6 5 5 4 5 5 5 5 5 6 4 6 6 6 5 5 10 13 14 15 17 16 15 14 12 11 11 10 10 9 8 8 7 7 6 6
7 5 4 6 6 5 5 4 6 4 4 5 5 6 4 5 4 5 6 7 7 7 6 7 6 8 13 16 18 17 16 14 13 12 11 10 9 8 8 7 7 6 6
4 5 4 4 4 5 8 6 4 6 6 2 2 2 3 5 6 6 4 6 9 9 7 7 6 4 6 16 17 18 17 16 14 13 12 11 10 9 9 8 7 6 6
5 3 5 6 6 5 6 7 6 3 3 5 4 1 3 3 5 7 5 7 9 7 9 9 8 7 6 5 7 15 16 18 16 14 12 11 10 9 9 9 8 7 6
5 6 6 5 5 5 6 5 5 7 9 4 6 5 0 6 1 2 8 8 9 7 8 9 9 8 7 6 8 9 11 15 17 15 13 12 10 10 10 9 8 7 7
6 6 6 6 8 5 7 8 6 7 4 8 2 7 3 3 5 5 3 3 3 5 5 4 7 8 9 8 9 10 11 12 17 15 13 12 12 10 9 9 9 8 8
5 6 6 6 6 6 7 6 5 7 6 8 6 3 7 5 2 4 10 5 3 5 5 7 8 8 10 9 7 9 13 15 17 14 13 10 8 9 9 9 9 9 8
4 6 6 4 5 5 6 5 6 6 7 7 7 6 7 4 9 8 7 6 3 3 4 6 7 7 7 8 9 13 14 17 18 12 6 7 10 10 8 8 9 9 10
3 5 6 6 4 5 5 4 4 5 5 4 6 6 7 9 7 5 7 8 3 1 3 3 5 2 3 4 7 11 16 17 15 13 11 13 7 3 4 4 9 14 17
3 5 5 6 7 7 4 2 1 2 3 3 5 4 5 7 6 7 8 7 3 4 1 2 4 6 2 3 10 19 11 19 15 13 12 11 9 10 9 10 13 14 17
4 5 5 6 7 8 8 7 3 3 4 4 4 3 4 5 5 5 3 3 4 2 2 4 2 6 4 2 6 6 9 18 18 15 16 15 14 14 13 12 16 18 18
6 5 6 6 6 6 7 7 5 5 5 4 5 5 3 2 3 4 3 2 0 3 4 1 4 4 4 2 4 4 3 11 15 14 14 13 13 15 16 17 18 15 15
6 6 6 6 6 7 7 6 6 6 6 6 6 6 6 6 3 3 3 2 2 2 3 2 1 3 3 3 3 4 3 2 2 8 12 13 14 17 19 15 13 13 15
5 6 6 6 6 6 7 7 7 7 8 8 7 6 6 4 6 6 4 4 3 3 1 2 2 1 2 2 3 4 4 4 4 8 11 13 16 15 12 12 13 15 14
5 5 6 6 6 7 7 7 7 8 8 8 7 6 6 5 6 5 5 4 3 3 2 2 2 1 1 2 2 2 2 1 3 4 8 9 11 13 13 11 12 14 14
7 8 9 9 9 8 8 6 7 8 8 8 8 7 7 7 6 5 4 2 2 2 2 2 2 2 1 2 3 1 0 2 2 3 6 4 6 8 11 12 12 12 11
9 8 9 9 9 9 7 6 8 8 7 8 8 8 8 9 11 7 3 5 5 4 3 3 2 2 1 2 1 1 2 1 2 1 1 2 2 2 4 9 11 13 13
7 7 8 7 8 7 15 15 11 8 8 7 7 8 8 12 12 14 12 10 5 2 2 2 2 2 3 1 1 1 2 2 1 1 1 2 3 4 4 4 11 12 13
5 6 7 7 8 8 15 14 13 6 6 7 5 4 5 4 6 4 8 9 8 7 4 2 2 1 1 0 2 1 1 2 2 2 0 4 2 3 3 5 11 13 13
4 4 6 6 6 5 12 13 12 4 4 4 4 5 5 5 4 5 5 4 5 4 3 3 3 3 2 3 3 4 5 3 2 3 3 3 1 3 3 4 11 11 10
3 3 3 5 6 5 9 9 7 5 5 5 4 4 4 5 7 9 5 5 4 3 6 7 5 3 4 5 5 4 0 2 2 2 1 1 2 3 3 3 2 2 2
3 3 3 3 8 6 9 10 6 3 4 3 4 5 8 5 7 8 3 2 4 3 3 4 4 5 5 5 5 3 3 3 2 3 2 2 2 2 5 2 2 3 3
Wind_Direction
192 185 204 203 202 192 197 203 212 218 221 230 230 225 245 206 208 203 200 204 191 185 187 187 192 194 192 182 176 169 161 153 149 146 139 135 131 128 123 117 110 105 104
197 196 196 210 211 200 204 203 209 215 224 208 236 215 230 221 205 198 197 208 200 190 193 197 198 200 202 198 188 183 178 167 163 156 148 146 138 135 127 123 116 111 108
198 198 200 208 213 203 202 211 223 214 229 227 229 216 217 222 200 207 203 203 205 199 198 202 203 207 207 206 198 194 189 181 175 168 162 159 152 148 141 135 130 123 118
191 202 203 211 210 198 204 198 216 219 222 213 228 233 221 212 217 208 206 205 203 205 208 209 208 209 210 211 207 202 199 191 186 181 176 172 170 168 163 157 151 144 133
204 199 208 212 197 207 207 204 216 203 212 217 218 230 235 224 216 196 210 214 215 211 205 219 211 209 212 215 214 206 205 202 199 195 189 185 183 181 175 174 172 173 166
211 207 215 217 195 199 210 196 210 196 209 212 210 225 228 240 228 218 206 208 212 214 209 210 211 212 205 214 219 216 209 208 206 206 202 199 198 200 197 192 191 194 187
204 228 244 256 231 218 229 216 196 205 232 172 80 289 290 248 243 234 213 212 211 211 212 209 209 200 211 209 217 222 215 210 211 213 209 206 210 213 217 213 211 215 225
226 213 211 227 218 217 227 223 195 204 243 173 185 6 268 287 250 230 209 217 222 204 208 210 210 198 196 200 208 221 225 215 212 215 217 219 218 221 228 230 231 231 238
242 223 220 216 228 211 222 229 230 208 237 192 202 186 204 232 327 274 234 222 219 211 213 209 203 202 198 197 203 210 220 214 218 218 219 232 229 226 230 234 240 246 250
275 265 246 222 222 215 218 221 211 212 229 246 240 235 238 210 199 299 278 255 230 232 230 208 208 209 208 204 197 191 198 199 216 224 229 230 236 229 233 243 252 257 259
309 289 255 245 229 223 226 212 203 202 202 235 214 201 232 217 244 224 266 255 234 220 214 206 198 200 206 201 191 199 191 197 212 228 240 244 243 248 248 262 267 274 292
11 8 350 292 251 237 221 210 214 210 209 216 231 223 230 210 229 228 254 256 292 301 259 224 198 205 202 193 183 178 190 199 200 217 232 251 266 259 255 270 281 291 288
8 354 356 359 342 300 270 244 228 229 224 205 213 223 227 240 248 243 238 261 263 345 311 317 342 296 168 155 159 160 206 216 209 192 180 212 215 251 309 305 305 297 290
2 357 356 353 352 352 343 333 296 293 305 282 271 238 234 233 232 240 253 263 250 238 226 250 66 325 349 174 168 163 176 181 187 175 168 187 218 248 255 260 264 276 277
4 13 12 13 8 14 9 6 14 12 358 330 301 318 272 257 229 225 223 176 209 267 203 116 331 340 325 23 190 145 148 178 184 188 213 224 230 238 241 257 262 265 272
3 9 14 21 21 21 11 17 19 11 12 5 23 348 14 25 51 56 76 107 241 259 252 135 201 160 200 146 169 98 124 197 212 200 216 223 234 246 253 260 265 273 273
9 16 15 18 27 25 20 29 20 18 34 32 26 31 29 6 24 40 75 108 162 187 211 160 344 34 130 148 107 92 106 71 30 242 233 226 241 260 268 273 272 271 272
11 16 25 27 29 27 26 31 36 36 40 38 27 38 41 37 36 28 29 26 44 21 92 126 52 162 32 54 105 125 151 208 214 240 253 259 266 274 271 268 266 267 275
17 22 32 30 32 28 34 43 51 59 56 49 41 45 37 57 57 46 43 43 27 4 31 108 127 82 73 172 130 79 202 244 272 269 265 259 257 259 264 277 281 276 271
34 42 37 37 40 34 32 34 50 58 62 57 52 53 49 57 67 70 73 54 62 75 44 87 93 100 165 95 79 111 318 238 262 256 259 264 280 296 290 287 280 281 289
41 45 51 48 49 50 49 42 47 51 54 58 48 45 45 63 79 71 56 38 34 29 34 33 51 46 58 58 95 166 204 55 327 273 8 344 351 301 289 286 280 268 268
43 38 41 43 47 57 63 64 62 56 54 48 48 42 40 40 35 52 64 66 67 42 43 18 8 39 34 12 40 102 153 91 297 354 42 272 250 264 261 258 268 270 265
47 46 37 46 50 50 60 64 66 59 59 53 45 39 47 35 39 31 32 39 29 33 60 92 74 61 123 341 102 58 74 126 218 273 97 270 235 266 254 262 277 273 268
42 49 46 28 42 54 64 68 69 48 43 27 39 47 52 14 352 58 28 18 22 9 4 73 112 174 173 185 173 172 181 194 269 269 169 259 304 268 274 258 279 271 258
62 33 32 36 40 7 64 65 65 50 42 28 28 27 58 11 358 47 41 18 2 360 13 39 29 335 308 322 193 116 197 92 306 269 216 223 314 292 281 290 301 333 8
68 53 26 28 55 25 49 59 63 50 32 6 354 0 360 14 9 353 67 21 346 300 346 355 353 352 2 335 337 165 157 157 182 337 247 109 333 12 326 303 296 296 309